Dewpoint
48 48 49 49 48 48 49 49 48 48 48 49 49 49 48 48 47 41 37 40 46 51 49 48 48 50 51 51 47 45 38 30 27 27 25 30 28 30 29 26 28 39 52 57 62
48 49 48 48 48 48 48 48 48 48 48 48 48 48 48 47 40 37 44 45 45 46 37 38 46 48 47 43 47 43 36 31 32 29 29 30 31 30 27 27 29 52 58 61 64
48 48 48 48 47 47 47 48 48 48 48 48 48 47 47 42 33 34 45 42 40 35 39 46 47 47 42 44 43 42 36 33 35 34 34 32 32 32 29 28 29 49 56 60 61
47 47 47 47 47 47 47 47 47 47 45 45 46 46 46 38 6 32 43 40 37 27 26 42 45 42 40 37 40 40 40 39 38 38 38 37 36 32 32 30 29 40 57 59 60
47 47 46 46 46 46 46 47 46 44 44 45 44 44 39 32 30 35 40 34 25 25 24 27 31 41 36 38 39 40 39 39 41 41 40 39 37 35 36 34 33 33 57 58 60
46 46 46 46 46 46 46 45 42 43 43 43 42 43 36 27 31 34 24 22 24 22 25 25 25 25 25 32 37 36 37 37 37 37 38 39 38 36 35 37 37 39 54 58 58
46 45 45 45 45 46 45 42 40 41 41 41 39 35 37 35 34 19 22 21 23 24 26 25 26 28 28 28 33 36 35 35 34 35 36 36 35 36 37 35 36 36 51 56 57
45 45 44 44 45 44 42 38 40 40 39 40 40 36 34 30 20 20 22 18 19 27 29 28 30 32 29 28 27 27 35 29 30 33 33 36 31 33 34 36 34 32 47 54 55
44 44 44 44 44 41 38 37 37 36 34 30 23 33 11 23 19 21 20 19 23 27 25 12 23 27 29 25 23 24 22 22 29 32 31 30 27 32 33 33 34 34 33 51 52
44 44 44 43 43 37 36 38 33 32 28 21 21 15 8 16 23 21 19 16 28 24 18 18 23 19 18 16 6 13 19 22 21 23 29 31 27 24 31 34 35 35 32 38 53
44 43 43 42 42 37 32 30 24 17 25 22 23 12 18 22 24 17 22 16 15 15 11 14 18 11 12 14 8 11 10 15 15 18 20 22 28 32 34 29 32 34 35 33 36
43 43 42 41 40 38 31 29 27 23 21 25 25 25 20 23 18 15 19 13 18 14 14 11 9 7 11 9 9 9 9 7 12 15 19 22 20 22 25 33 31 33 35 35 35
43 42 42 40 38 34 30 30 33 29 21 17 20 20 16 20 16 12 17 16 15 13 12 12 10 11 8 8 10 9 7 8 11 19 19 20 17 17 22 26 25 27 32 36 36
43 42 40 40 29 31 25 32 34 29 13 5 14 14 17 20 14 15 19 20 16 12 15 14 13 8 8 7 7 8 12 11 13 13 9 18 9 11 13 22 23 25 30 35 35
42 41 39 38 28 27 28 33 32 21 -5 4 14 18 15 14 16 11 18 14 14 14 14 8 9 6 7 6 8 16 15 13 16 12 14 12 11 13 24 20 27 29 30 36 35
42 41 38 34 29 29 33 31 21 7 -14 5 11 9 10 13 11 14 13 16 17 16 11 11 9 12 11 10 9 8 14 15 12 13 6 8 11 9 13 22 23 29 32 35 36
41 39 34 31 25 30 31 17 5 -4 4 1 7 9 10 7 9 10 10 10 5 5 6 7 5 10 14 7 10 17 15 -2 0 -1 2 9 11 11 13 11 27 28 31 35 36
40 36 31 28 30 28 17 3 -3 -1 7 9 10 11 6 8 9 10 9 7 10 9 10 5 -1 7 8 10 15 15 15 3 -2 -1 -2 0 5 13 13 14 16 26 32 33 34
37 28 25 26 29 21 13 3 5 11 14 12 12 7 8 7 11 11 8 1 7 7 8 6 1 5 8 12 20 15 11 17 10 10 9 9 13 16 15 11 8 13 30 32 33
28 21 21 28 25 20 13 9 11 17 15 14 8 10 5 8 11 10 7 3 6 9 14 13 4 4 8 15 19 16 18 7 10 1 2 8 11 16 17 20 23 24 30 32 33
26 12 18 27 23 17 8 11 16 17 17 14 11 8 4 7 12 7 3 9 13 11 13 16 8 4 9 13 12 14 10 12 12 9 3 7 15 21 19 21 28 28 30 32 34
24 9 24 22 14 16 13 16 18 18 17 15 16 10 7 12 11 9 9 12 14 14 7 16 11 6 6 12 21 18 15 13 5 6 11 10 13 23 21 25 33 32 35 36 35
21 23 26 21 10 13 16 16 18 16 14 15 14 16 15 14 11 11 11 12 12 13 15 18 5 2 1 10 18 15 15 14 16 16 10 8 9 22 21 23 34 36 38 39 41
20 12 19 20 19 8 9 14 15 17 16 16 15 15 14 13 13 11 10 11 14 13 19 18 11 8 3 7 15 9 11 13 10 5 7 7 8 13 17 21 31 36 36 37 38
20 16 21 12 17 17 16 12 15 14 19 19 15 13 15 11 11 10 10 13 13 15 13 16 9 12 14 16 18 11 10 12 9 9 4 8 9 13 17 23 30 31 32 33 34
17 15 16 16 20 16 15 10 17 17 18 15 15 16 18 12 11 12 14 12 11 12 13 15 10 13 11 18 18 12 10 11 12 11 10 8 9 17 21 25 26 27 27 29 30
28 29 28 17 16 13 14 18 16 20 16 19 19 18 15 14 16 18 18 18 16 14 12 10 11 11 6 10 12 8 10 10 12 13 11 5 12 18 18 22 23 25 26 26 28
Lifted_Index
17 17 17 17 17 18 18 18 18 18 18 17 16 16 16 16 17 16 14 14 13 12 12 10 10 9 8 7 7 7 7 6 6 6 7 7 7 8 9 9 8 6 2 -0 -2
17 17 17 18 18 18 18 19 18 18 18 17 16 16 16 16 17 16 15 15 14 13 12 10 9 8 8 7 7 7 6 6 7 8 8 7 7 8 8 9 8 5 1 -1 -2
18 18 18 18 19 19 19 19 19 18 18 17 17 16 16 16 15 16 17 17 17 15 12 9 8 8 8 7 7 7 6 7 8 9 9 8 8 8 8 8 7 5 1 -2 -3
18 18 19 19 19 19 19 19 19 19 19 18 17 16 16 15 14 16 18 19 18 16 12 10 8 8 7 7 7 7 7 7 8 8 8 8 8 8 8 8 8 5 1 -2 -3
19 19 19 20 20 20 19 19 20 20 19 18 17 17 16 15 16 18 20 20 19 17 14 12 10 8 8 7 7 7 7 7 7 7 7 8 8 8 8 8 8 6 2 -1 -2
20 20 20 20 20 20 20 20 20 20 19 18 18 17 16 16 17 20 21 21 20 18 16 14 12 10 9 9 8 8 8 8 8 7 7 7 8 8 8 8 8 7 3 -1 -2
20 20 20 20 20 20 20 21 21 20 19 18 18 17 17 17 19 21 22 21 20 18 17 16 14 12 11 10 10 9 8 8 8 8 7 7 7 7 8 8 8 7 4 0 -1
20 21 21 21 20 20 21 21 21 20 20 19 18 17 18 20 21 22 22 21 19 17 16 15 13 11 10 10 10 9 9 8 8 8 8 7 6 7 8 8 8 7 5 1 -1
21 21 21 21 21 21 21 21 21 21 20 20 19 18 19 21 22 22 22 20 17 15 14 13 11 9 9 9 9 8 8 8 8 8 8 7 6 7 8 7 7 7 6 3 1
21 21 21 21 21 22 22 21 21 21 21 21 20 20 21 22 22 21 20 18 15 13 11 10 9 8 7 7 7 7 7 8 8 8 7 7 7 8 8 7 7 7 6 5 3
21 21 21 21 21 22 23 22 20 20 21 21 21 22 22 22 21 19 17 15 12 10 9 8 7 6 6 6 6 7 7 7 8 8 7 7 7 8 8 7 7 7 7 6 5
21 21 21 20 21 22 23 22 21 21 21 21 22 22 22 21 19 16 14 11 9 7 6 5 4 4 4 4 5 5 6 6 7 7 7 7 7 8 8 8 7 7 7 6 6
21 21 21 21 21 22 23 22 22 21 19 20 21 21 21 19 16 13 10 8 6 4 3 2 2 2 2 2 3 4 4 5 6 6 6 6 6 7 7 8 8 7 7 6 6
20 20 21 21 22 22 22 22 22 19 16 17 20 20 18 15 12 10 7 5 4 3 2 1 1 1 1 2 2 2 2 3 4 5 5 5 5 6 7 7 7 8 7 6 6
20 20 21 22 23 23 22 21 20 15 11 15 19 19 16 13 10 8 6 4 3 2 2 1 1 1 1 2 2 2 2 2 3 4 5 5 5 6 6 6 7 7 7 6 6
20 21 21 22 23 23 22 20 17 12 10 14 17 17 14 11 9 8 6 4 3 3 2 2 1 2 2 2 2 2 2 2 2 2 3 4 5 5 6 5 6 6 6 6 5
21 21 22 23 23 23 21 17 12 10 12 15 16 15 12 10 9 7 6 4 3 3 3 2 2 2 2 2 2 2 2 1 1 1 2 3 4 5 6 5 4 5 5 5 4
21 22 23 23 23 22 19 14 9 11 15 17 15 12 10 9 8 7 5 4 4 3 3 3 2 2 3 3 2 2 2 1 0 0 1 2 2 3 5 4 4 3 3 3 3
22 22 23 23 23 21 17 11 10 14 17 16 13 10 8 8 8 7 5 4 4 4 4 3 3 3 3 3 3 3 2 2 1 0 0 1 1 2 3 3 3 2 2 2 2
22 22 22 22 22 19 14 12 14 17 17 14 11 8 8 7 7 6 5 4 4 4 4 4 3 3 3 3 3 4 4 3 2 1 0 0 0 1 1 1 1 1 1 0 0
21 20 21 22 20 17 14 14 16 17 16 13 10 8 8 7 6 6 5 5 5 5 5 4 4 3 3 3 4 5 5 5 3 1 0 0 0 1 0 0 0 0 0 -0 -0
19 19 21 20 18 16 15 16 17 16 15 12 10 9 8 7 6 5 5 5 5 5 5 5 4 3 2 4 5 6 6 6 4 2 1 1 1 1 0 -0 -0 -0 0 0 0
18 19 20 20 16 15 16 16 16 15 14 11 10 9 8 7 6 5 5 6 6 6 5 5 4 3 2 4 5 6 7 6 5 3 3 2 2 1 0 -0 -1 -0 0 1 1
18 18 19 19 17 16 16 15 15 14 13 11 9 9 8 7 6 5 5 6 6 6 5 5 4 3 3 4 5 6 7 7 5 4 3 3 2 1 1 0 0 0 0 1 1
19 18 18 18 17 17 17 15 14 13 12 11 9 8 8 7 6 6 6 6 6 6 6 5 3 3 3 4 5 5 6 7 6 4 4 3 3 2 2 2 2 1 0 1 1
20 19 19 18 18 17 17 16 14 13 12 11 9 8 8 8 7 7 6 6 6 6 6 5 3 2 3 4 5 5 5 6 6 6 5 4 4 4 5 4 3 1 0 0 0
20 20 19 19 18 17 17 16 15 14 13 11 9 8 8 8 8 7 7 7 7 7 6 5 4 2 3 4 4 4 5 6 7 7 5 4 5 6 6 4 2 0 0 0 0